Location: Malanoce
(44.2500°N, 7.4667°E)
Time: 20:08:55
(UTC+00:00)

BlueWalker 3 - Pass Details

Date: 24 January 2026
Orbit: 450 x 461 km, 53.2° (Epoch: 11 February)

Event Time Altitude Azimuth Distance (km) Brightness Sun altitude
Rises 17:09:44 0° 229° (SW) 2,447 6.9 -7.6°
Reaches altitude 10° 17:11:52 10° 228° (SW) 1,577 5.7 -8.0°
Maximum altitude 17:15:24 74° 143° (SE) 472 1.7 -8.6°
Enters shadow 17:18:39 12° 59° (ENE) 1,459 3.7 -9.1°
